Location: Ferintosh
(52.7647°N, 112.9692°W)
Time: 23:00:08
(UTC+00:00)

Vanguard 1 Rocket - Pass Details

Date: 21 May 2024
Orbit: 649 x 4221 km, 34.3° (Epoch: 13 June)

Event Time Altitude Azimuth Distance (km) Brightness Sun altitude
Rises 19:54:09 0° 254° (WSW) 6,860 12.1 57.3°
Reaches altitude 10° 20:00:21 10° 244° (WSW) 5,174 11.7 57.1°
Maximum altitude 20:10:20 26° 197° (SSW) 2,895 11.2 56.7°
Drops below altitude 10° 20:16:38 10° 144° (SE) 3,135 10.6 56.3°
Sets 20:19:20 0° 130° (SE) 3,767 10.7 56.2°
